Погода в Щекино

Россия / Тульская область     54°00′07″N   37°31′03″E
темп.,
°C
ветер,
м/с
пор.,
м/с
влажн.,
%
обл.,
%
осадки,
мм/ч
давл.,
гПа
погр.,
м
15 мая, сб
сб1500:00+14ююв499599 3.5 1010194
03:00+14ююв3594100 4.1 100979
06:00+15ю34965 0.0 1008106
09:00+19ююз698118 0.0 1009638
12:00+21ююз696467 0.1 10091370
15:00+21ююз79585 0.1 10091823
18:00+18ююз610719 0.4 1010938
21:00+14ю411908 0.8 1011316
16 мая, вс
вс1600:00+13ююз410940 0.0 1011271
03:00+11ююз49950 0.0 1013178
06:00+12ю38925 0.0 1013207
09:00+15ююз4781100 0.0 1014407
12:00+20ююз610640 0.1 10141440
15:00+21юз69560 0.3 10141963
18:00+20зюз466878 0.0 1014540
21:00+15зюз1181100 0.0 101411
17 мая, пн
пн1700:00+14в2283100 0.0 101410
03:00+13в348814 0.0 101448
06:00+14в411875 0.0 1014247
09:00+20в697649 0.0 1013476
12:00+24вюв7106157 0.0 1011835
15:00+25вюв611585 0.0 10101307
18:00+23вюв7136589 0.0 1009682
21:00+19вюв616785 0.0 1009456
18 мая, вт
вт1800:00+18вюв6157748 0.0 1008405
03:00+16юв5127887 0.0 1007254
06:00+15юв5118450 0.0 1007243
09:00+20ююв6107791 0.3 1007519
12:00+22ю8116655 0.0 10071202
15:00+22ю71069100 0.5 10071484
18:00+17ююз248048 2.3 100779
21:00+16ююв3689100 2.3 1007106
19 мая, ср
ср1900:00+14юв369453 0.0 1006104
03:00+13ююв3795100 0.0 1006163
06:00+14юв41094100 0.3 1005335
09:00+15ю5991100 0.9 1005689
12:00+16ююз797988 0.3 10051060
15:00+16юз7883100 1.9 1006769
18:00+16з6982100 0.8 1007881
21:00+12юз3693100 0.8 1010116